Content
SEND FEEDBACK

Daily
Averages
Monthly
Summary
Bosnia and Herzegovina

ILIDZA, BOSNIA AND HERZEGOVINA


Home > Europe > Bosnia and Herzegovina
Elevation: 1677 feet     Latitude: 43 49N     Longitude: 018 19E

WEATHER
 
SELECT A DAY
Number of Records: 184,391;   Date Range: 2/20/97 - 12/17/14
 
SHARE

PRINT THIS DATA

[ ← Previous Day ]
WEATHER ALMANAC - MAY 12, 2014
[ Next Day → ]
[ °C ]   °F
Weather ElementAverageHighLow
Temperature53.4 °F64.4 °F (1:00 am)44.6 °F (6:00 am)
Dewpoint47.2 °F50 °F (3:00 am)44.6 °F (5:00 am)
Humidity81 %100 % (6:00 am)52 % (1:00 am)
Barometer29.96 in30.01 in (8:00 am)29.80 in (1:00 am)
Wind Speed3.7 mph12.7 mph (4:00 am)
Weather ElementAverage
Visibility6 mi
Wind DirectionESE (125.7 °)

Weather ElementTotal
Precipitation---
Heating Degree Days10.5 (Base 65)
Growing Degree Days4.5 (Base 50)
Averaged from 42 records on May 12, 2014
WEATHER CONDITIONS BREAKOUT
WIND DIRECTION BREAKOUT
WEATHER BY HOUR - MAY 12, 2014
[ °C ]   °F
Local TimeTemperatureDewpointHumidityBarometerVisibilityWind DirectionWind SpeedGust SpeedPrecipitationEventsConditions
1:00 AM64.4 °F46.4 °F52 %29.80 inSE (140°)11.5 mphClear
2:00 AM64.4 °F48.2 °F56 %29.80 in6.2 miSE (140°)10.4 mphScattered Clouds
3:00 AM60.8 °F50.0 °F68 %29.80 in6.2 miESE (120°)8.1 mphRainRain
4:00 AM51.8 °F48.2 °F88 %29.86 in6.2 miNNW (330°)12.7 mphRainRain
5:00 AM46.4 °F44.6 °F93 %29.95 in6.2 miWest (280°)8.1 mphRainRain Showers
5:30 AM46.4 °F44.6 °F93 %29.95 in6.2 miWSW (240°)4.6 mphRainRain
6:00 AM44.6 °F44.6 °F100 %29.95 in6.2 miWSW (250°)4.6 mphRainLight Rain
6:30 AM44.6 °F44.6 °F100 %29.95 in5.0 miVariable2.3 mphRainRain
7:00 AM44.6 °F44.6 °F100 %29.98 in4.3 miVariable2.3 mphRain-ThunderstormThunderstorms and Rain
7:30 AM44.6 °F44.6 °F100 %29.98 in4.3 miVariable2.3 mphRainRain
8:00 AM44.6 °F44.6 °F100 %30.01 in4.3 miVariable2.3 mphRainLight Rain
8:30 AM46.4 °F46.4 °F100 %29.98 in4.3 miVariable2.3 mphRainLight Rain
9:00 AM48.2 °F48.2 °F100 %29.98 in6.2 miVariable2.3 mphScattered Clouds
9:30 AM48.2 °F48.2 °F100 %29.98 in6.2 miVariable2.3 mphScattered Clouds
10:00 AM50.0 °F50.0 °F100 %29.98 in6.2 miVariable1.2 mphScattered Clouds
10:30 AM51.8 °F46.4 °F82 %29.98 in6.2 miVariable2.3 mphScattered Clouds
11:00 AM51.8 °F44.6 °F76 %29.98 in6.2 miNW (310°)3.5 mphScattered Clouds
11:30 AM53.6 °F46.4 °F77 %30.01 in6.2 miWest (280°)3.5 mphMostly Cloudy
12:00 PM53.6 °F46.4 °F77 %30.01 in6.2 miWSW (250°)3.5 mphMostly Cloudy
12:30 PM55.4 °F48.2 °F77 %30.01 in6.2 miNNW (330°)3.5 mphMostly Cloudy
1:00 PM57.2 °F48.2 °F72 %30.01 in6.2 miWNW (290°)3.5 mphMostly Cloudy
1:30 PM57.2 °F46.4 °F67 %29.98 in6.2 miVariable2.3 mphMostly Cloudy
2:00 PM55.4 °F46.4 °F72 %29.98 in6.2 miNNW (330°)5.8 mphMostly Cloudy
2:30 PM57.2 °F46.4 °F67 %29.98 in6.2 miNorth (350°)4.6 mphMostly Cloudy
3:00 PM59.0 °F48.2 °F67 %29.98 in6.2 miNNW (330°)4.6 mphScattered Clouds
3:30 PM59.0 °F48.2 °F67 %29.98 in6.2 miWest (270°)3.5 mphScattered Clouds
4:00 PM59.0 °F48.2 °F67 %29.95 in6.2 miWest (260°)4.6 mphScattered Clouds
4:30 PM59.0 °F46.4 °F63 %29.95 in6.2 miWest (270°)4.6 mphScattered Clouds
5:00 PM59.0 °F48.2 °F67 %29.95 in6.2 miVariable2.3 mphScattered Clouds
5:30 PM59.0 °F46.4 °F63 %29.95 in6.2 miSSW (210°)3.5 mphScattered Clouds
6:00 PM59.0 °F48.2 °F67 %29.95 in6.2 miVariable2.3 mphScattered Clouds
6:30 PM59.0 °F46.4 °F63 %29.95 in6.2 miVariable1.2 mphMostly Cloudy
7:00 PM59.0 °F50.0 °F72 %29.95 in6.2 miVariable1.2 mphMostly Cloudy
7:30 PM57.2 °F48.2 °F72 %29.95 in6.2 miVariable2.3 mphMostly Cloudy
8:00 PM55.4 °F48.2 °F77 %29.95 in6.2 miVariable2.3 mphScattered Clouds
8:30 PM53.6 °F50.0 °F88 %29.95 in6.2 miWNW (300°)4.6 mphScattered Clouds
9:00 PM53.6 °F48.2 °F82 %29.95 in6.2 miVariable2.3 mphScattered Clouds
9:30 PM51.8 °F48.2 °F88 %29.98 in6.2 miVariable1.2 mphPartly Cloudy
10:00 PM50.0 °F48.2 °F94 %29.98 in6.2 miVariable1.2 mphPartly Cloudy
10:30 PM50.0 °F48.2 °F94 %29.98 in6.2 miVariable1.2 mphPartly Cloudy
11:00 PM50.0 °F48.2 °F94 %29.98 in6.2 miVariable2.3 mphPartly Cloudy
11:30 PM48.2 °F48.2 °F100 %29.98 in6.2 miCalmPartly Cloudy
Hourly data recorded from LQSA, located miles away from Ilidza, Bosnia and Herzegovina







STORIES FROM OUR PARTNERS